Hourly Data Report for January 02, 2018

All times are specified in Local Standard Time (LST). Add 1 hour to adjust for Daylight Saving Time where and when it is observed.

SAULT STE MARIE A
ONTARIO

46°29'06.000" N
84°30'35.000" W
192.00 m
6057591
71260
YAM

Download Data

Hourly Data (January 2018)
Hourly Data Report for January 2, 2018
Temp Definition
°C
Dew Point Temp Definition
°C
Rel Hum Definition
%
Wind Dir Definition
10's deg

Wind Spd Definition
km/h
Visibility Definition
km
Stn Press Definition
kPa
Hmdx Definition


Wind Chill Definition


Weather Definition


TIME
00:00 -8.7 -11.2 82 25 35 16.1 100.22   -18 Blowing Snow
01:00 -9.2 -12.0 80 25 31 16.1 100.16   -19 Blowing Snow
02:00 -10.5 -13.0 82 23 24 24.1 100.09   -19 Blowing Snow
03:00 -10.1 -12.8 81 23 27 24.1 100.01   -19 Snow Showers,Blowing Snow
04:00 -10.1 -12.8 81 23 25 24.1 99.92   -19 Snow Showers,Blowing Snow
05:00 -10.5 -13.1 82 25 30 24.1 99.83   -20 Snow Showers,Blowing Snow
06:00 -11.0 -13.7 81 24 29 24.1 99.74   -21 Ice Pellet Showers,Blowing Snow
07:00 -11.0 -13.7 81 25 32 24.1 99.65   -21 Ice Pellet Showers,Blowing Snow
08:00 -11.1 -14.0 80 25 37 4.8 99.59   -22 Ice Pellet Showers,Blowing Snow
09:00 -11.0 -13.8 80 24 28 16.1 99.49   -21 Blowing Snow
10:00 -10.9 -14.3 76 23 26 16.1 99.45   -20 Blowing Snow
11:00 -10.9 -14.9 73 23 29 19.3 99.43   -21 Blowing Snow
12:00 -10.2 -14.6 70 23 27 24.1 99.34   -19 Blowing Snow
13:00 -8.5 -13.1 70 24 27 24.1 99.23   -17 Blowing Snow
14:00 -8.3 -13.2 68 24 34 24.1 99.17   -18 Blowing Snow
15:00 -9.2 -14.3 67 23 28 24.1 99.14   -18 Blowing Snow
16:00 -9.6 -17.2 54 23 22 24.1 99.13   -18 Blowing Snow
17:00 -9.5 -15.9 60 21 18 24.1 99.11   -17 Blowing Snow
18:00 -9.7 -15.5 63 25 21 24.1 99.08   -18 LegendNANA
19:00 -9.7 -14.5 69 24 14 24.1 99.01   -16 Cloudy
20:00 -9.4 -13.6 72 22 9 24.1 98.94   -14 LegendNANA
21:00 -9.0 -12.1 78 24 17 4.8 98.88   -16 Ice Pellets
22:00 -9.0 -11.5 82 24 18 4.0 98.81   -16 Ice Pellets,Blowing Snow
23:00 -9.3 -12.3 78 24 17 4.8 98.80   -16 Ice Pellets,Blowing Snow

Notes on Data Quality.

Legend

  • E = Estimated
  • M = Missing
  • NA = Not Available
Date modified: